User: anonymous   Login
Location: Unspecified
(0.0000°N, 0.0000°E)
Time: 12:44:04
(UTC+00:00)
Language:

BIRD - Orbit

View from above orbital plane
View from above orbital plane
View from above satellite
View from above satellite

Ground track
Ground track

The orbit data is extracted from the following two-line orbital elements,

1 26959U 01049C   18053.45755694 +.00001417 +00000-0 +43746-4 0  9998
2 26959 097.8221 019.9416 0007789 206.7454 153.3388 15.35426512210953
Epoch (UTC): 22 February 2018 10:58:52
Eccentricity: 0.0007789
inclination: 97.8221°
perigee height: 454 km
apogee height: 465 km
right ascension of ascending node: 19.9416°
argument of perigee: 206.7454°
revolutions per day: 15.35426512
mean anomaly at epoch: 153.3388°
orbit number at epoch: 21095

The dashed part of the orbit path shows where the satellite is in the earth's shadow,  

DLR